Погода в Краснополье

Россия / Воронежская область     50°37′24″N   41°17′41″E
темп.,
°C
ветер,
м/с
пор.,
м/с
влажн.,
%
обл.,
%
осадки,
мм/ч
давл.,
гПа
погр.,
м
9 мая, вс
вс900:00+13ю3792100 0.1 1007132
03:00+12з2396100 0.5 1007101
06:00+8зсз61093100 1.0 1008407
09:00+6зсз71191100 4.4 1010619
12:00+6сз71088100 3.4 1012796
15:00+8сз71076100 3.5 10141081
18:00+8ссз61172100 0.0 10161286
21:00+6ссз51280100 0.0 10181003
10 мая, пн
пн1000:00+6ссз61182100 0.1 10181003
03:00+6ссз61185100 0.2 1018939
06:00+6с81389100 0.1 1017812
09:00+6ссз91591100 0.5 1016830
12:00+7с111893100 1.4 1015743
15:00+8с91894100 3.0 1014717
18:00+9ссв111995100 2.1 1012593
21:00+10ссв122095100 3.1 1012594
11 мая, вт
вт1100:00+10в61394100 0.9 1013599
03:00+8в4995100 4.3 1015589
06:00+7в5109180 2.3 1017861
09:00+9в8116691 2.3 10191391
12:00+11вюв9137148 0.1 10201505
15:00+11вюв79653 0.2 1022938
18:00+12вюв6968100 0.1 10231264
21:00+9юв2580100 0.1 1023111
12 мая, ср
ср1200:00+8вюв118591 0.0 102311
03:00+7всв228887 0.0 102214
06:00+8в388813 0.0 1022216
09:00+14в57655 0.0 1022627
12:00+17юв345013 0.0 10211699
15:00+18в334899 0.0 10201713
18:00+17в2461100 0.0 1020186
21:00+13всв226612 0.0 101910
13 мая, чт
чт1300:00+11в228753 0.0 101916
03:00+10в11921 0.0 101810
06:00+12св11895 0.0 101844
09:00+18вюв117012 0.0 1018794
12:00+21ю23510 0.1 10171555
15:00+22ююв34467 0.1 10171832
18:00+20юв3661100 0.0 1017199
21:00+16юв2272100 0.0 101817